Tracking 23764 objects as of 17-Oct-2021
HD Live streaming from Space Station
objects crossing your sky now

PROGRESS MS-17

Track PROGRESS MS-17 now!
10-day predictions
PROGRESS MS-17 is classified as:


NORAD ID: 48869
Int'l Code: 2021-057A
Perigee: 424.8 km
Apogee: 430.5 km
Inclination: 51.6 °
Period: 93.0 minutes
Semi major axis: 6798 km
RCS: Unknown
Launch date: June 29, 2021
Source: Commonwealth of Independent States (former USSR) (CIS)
Launch site: TYURATAM MISSILE AND SPACE COMPLEX (TTMTR)
aabbcc
Your satellite tracking list
Your tracking list is empty




NASA's NSSDC Master Catalog

Two Line Element Set (TLE):
1 48869U 21057A   21289.53582973  .00006882  00000-0  13428-3 0  9999
2 48869  51.6432 102.7082 0004209 118.5037 316.3696 15.48711192307405
Source of the keplerian elements: AFSPC